Time,TemperatureF,DewpointF,PressureIn,WindDirection,WindDirectionDegrees,WindSpeedMPH,WindSpeedGustMPH,Humidity,HourlyPrecipIn,Conditions,Clouds,dailyrainin,SoftwareType,DateUTC
2013-06-29 00:02:00,57.2,42.1,32.05,South,180,3.0,9.0,57,0.00,,,0.00,meteohub,2013-06-29 06:02:00,
2013-06-29 00:07:00,57.2,42.1,32.05,South,180,3.0,9.0,57,0.00,,,0.00,meteohub,2013-06-29 06:07:00,
2013-06-29 00:12:00,56.7,41.5,32.05,West,270,2.0,6.0,57,0.00,,,0.00,meteohub,2013-06-29 06:12:00,
2013-06-29 00:17:00,56.5,41.4,32.05,SW,225,0.0,3.0,57,0.00,,,0.00,meteohub,2013-06-29 06:17:00,
2013-06-29 00:22:00,55.9,41.0,32.06,NW,315,0.0,3.0,57,0.00,,,0.00,meteohub,2013-06-29 06:22:00,
2013-06-29 00:27:00,55.4,40.8,32.05,SE,135,1.0,3.0,58,0.00,,,0.00,meteohub,2013-06-29 06:27:00,
2013-06-29 00:32:00,55.4,40.8,32.06,SW,225,2.0,3.0,58,0.00,,,0.00,meteohub,2013-06-29 06:32:00,
2013-06-29 00:37:00,54.9,40.8,32.05,SW,225,2.0,3.0,59,0.00,,,0.00,meteohub,2013-06-29 06:37:00,
2013-06-29 00:42:00,54.3,40.3,32.06,SW,225,2.0,3.0,59,0.00,,,0.00,meteohub,2013-06-29 06:42:00,
2013-06-29 00:47:00,53.4,40.3,32.06,SW,225,0.0,2.0,61,0.00,,,0.00,meteohub,2013-06-29 06:47:00,
2013-06-29 00:52:00,52.9,40.3,32.06,NW,315,2.0,2.0,62,0.00,,,0.00,meteohub,2013-06-29 06:52:00,
2013-06-29 00:57:00,52.2,39.9,32.06,NW,315,2.0,3.0,63,0.00,,,0.00,meteohub,2013-06-29 06:57:00,
2013-06-29 01:02:00,51.8,39.6,32.06,North,0,1.0,3.0,63,0.00,,,0.00,meteohub,2013-06-29 07:02:00,
2013-06-29 01:07:00,51.8,39.6,32.06,SW,225,4.0,4.0,63,0.00,,,0.00,meteohub,2013-06-29 07:07:00,
2013-06-29 01:12:00,52.0,40.1,32.06,SE,135,3.0,4.0,64,0.00,,,0.00,meteohub,2013-06-29 07:12:00,
2013-06-29 01:17:00,52.5,40.6,32.05,SE,135,3.0,4.0,64,0.00,,,0.00,meteohub,2013-06-29 07:17:00,
2013-06-29 01:22:00,53.1,41.2,32.05,SE,135,3.0,5.0,64,0.00,,,0.00,meteohub,2013-06-29 07:22:00,
2013-06-29 01:27:00,53.1,41.2,32.06,SE,135,2.0,5.0,64,0.00,,,0.00,meteohub,2013-06-29 07:27:00,
2013-06-29 01:32:00,52.9,41.4,32.06,South,180,2.0,5.0,65,0.00,,,0.00,meteohub,2013-06-29 07:32:00,
2013-06-29 01:37:00,52.5,41.2,32.06,SW,225,2.0,3.0,65,0.00,,,0.00,meteohub,2013-06-29 07:37:00,
2013-06-29 01:42:00,52.7,41.2,32.06,SE,135,4.0,4.0,65,0.00,,,0.00,meteohub,2013-06-29 07:42:00,
2013-06-29 01:47:00,53.2,41.7,32.06,SW,225,2.0,7.0,65,0.00,,,0.00,meteohub,2013-06-29 07:47:00,
2013-06-29 01:52:00,53.4,41.5,32.06,SE,135,2.0,7.0,64,0.00,,,0.00,meteohub,2013-06-29 07:52:00,
2013-06-29 01:57:00,53.8,41.0,32.06,South,180,3.0,7.0,62,0.00,,,0.00,meteohub,2013-06-29 07:57:00,
2013-06-29 02:02:00,54.0,41.2,32.06,NE,45,2.0,4.0,62,0.00,,,0.00,meteohub,2013-06-29 08:02:00,
2013-06-29 02:07:00,54.0,41.2,32.06,NE,45,2.0,4.0,62,0.00,,,0.00,meteohub,2013-06-29 08:07:00,
2013-06-29 02:12:00,52.9,40.3,32.06,NE,45,0.0,4.0,62,0.00,,,0.00,meteohub,2013-06-29 08:12:00,
2013-06-29 02:17:00,52.0,39.4,32.06,SE,135,0.0,2.0,62,0.00,,,0.00,meteohub,2013-06-29 08:17:00,
2013-06-29 02:22:00,51.1,39.4,32.05,SE,135,0.0,2.0,64,0.00,,,0.00,meteohub,2013-06-29 08:22:00,
2013-06-29 02:27:00,50.2,38.5,32.05,South,180,0.0,0.0,64,0.00,,,0.00,meteohub,2013-06-29 08:27:00,
2013-06-29 02:32:00,49.6,38.7,32.05,West,270,0.0,0.0,66,0.00,,,0.00,meteohub,2013-06-29 08:32:00,
2013-06-29 02:37:00,49.1,38.7,32.05,West,270,0.0,0.0,67,0.00,,,0.00,meteohub,2013-06-29 08:37:00,
2013-06-29 02:42:00,48.7,38.7,32.06,West,270,0.0,0.0,68,0.00,,,0.00,meteohub,2013-06-29 08:42:00,
2013-06-29 02:47:00,48.7,38.7,32.05,West,270,0.0,0.0,68,0.00,,,0.00,meteohub,2013-06-29 08:47:00,
2013-06-29 02:52:00,48.7,39.0,32.05,NW,315,0.0,0.0,69,0.00,,,0.00,meteohub,2013-06-29 08:52:00,
2013-06-29 02:57:00,48.7,39.0,32.05,SW,225,0.0,0.0,69,0.00,,,0.00,meteohub,2013-06-29 08:57:00,
2013-06-29 03:02:00,48.4,38.7,32.05,West,270,0.0,0.0,69,0.00,,,0.00,meteohub,2013-06-29 09:02:00,
2013-06-29 03:07:00,48.2,38.5,32.05,SE,135,0.0,0.0,69,0.00,,,0.00,meteohub,2013-06-29 09:07:00,
2013-06-29 03:12:00,48.2,38.5,32.05,SE,135,0.0,0.0,69,0.00,,,0.00,meteohub,2013-06-29 09:12:00,
2013-06-29 03:17:00,47.8,38.5,32.05,NW,315,0.0,0.0,70,0.00,,,0.00,meteohub,2013-06-29 09:17:00,
2013-06-29 03:22:00,47.3,37.9,32.05,South,180,0.0,0.0,70,0.00,,,0.00,meteohub,2013-06-29 09:22:00,
2013-06-29 03:27:00,46.6,37.8,32.05,SW,225,0.0,0.0,71,0.00,,,0.00,meteohub,2013-06-29 09:27:00,
2013-06-29 03:32:00,46.0,37.6,32.05,SW,225,0.0,0.0,72,0.00,,,0.00,meteohub,2013-06-29 09:32:00,
2013-06-29 03:37:00,45.9,37.4,32.05,SW,225,0.0,0.0,72,0.00,,,0.00,meteohub,2013-06-29 09:37:00,
2013-06-29 03:42:00,45.5,37.4,32.05,SW,225,0.0,0.0,73,0.00,,,0.00,meteohub,2013-06-29 09:42:00,
2013-06-29 03:47:00,45.5,37.8,32.05,SW,225,0.0,0.0,74,0.00,,,0.00,meteohub,2013-06-29 09:47:00,
2013-06-29 03:52:00,45.7,37.9,32.05,SW,225,0.0,0.0,74,0.00,,,0.00,meteohub,2013-06-29 09:52:00,
2013-06-29 03:57:00,45.7,37.9,32.04,South,180,0.0,0.0,74,0.00,,,0.00,meteohub,2013-06-29 09:57:00,
2013-06-29 04:02:00,45.7,37.9,32.05,West,270,0.0,0.0,74,0.00,,,0.00,meteohub,2013-06-29 10:02:00,
2013-06-29 04:07:00,45.7,37.9,32.04,West,270,0.0,0.0,74,0.00,,,0.00,meteohub,2013-06-29 10:07:00,
2013-06-29 04:12:00,45.9,38.1,32.04,West,270,0.0,0.0,74,0.00,,,0.00,meteohub,2013-06-29 10:12:00,
2013-06-29 04:17:00,45.7,37.9,32.04,SW,225,0.0,0.0,74,0.00,,,0.00,meteohub,2013-06-29 10:17:00,
2013-06-29 04:22:00,45.5,37.8,32.05,SW,225,0.0,0.0,74,0.00,,,0.00,meteohub,2013-06-29 10:22:00,
2013-06-29 04:27:00,45.0,37.2,32.04,SW,225,0.0,0.0,74,0.00,,,0.00,meteohub,2013-06-29 10:27:00,
2013-06-29 04:32:00,45.0,37.2,32.04,SW,225,0.0,0.0,74,0.00,,,0.00,meteohub,2013-06-29 10:32:00,
2013-06-29 04:37:00,44.8,37.4,32.04,SW,225,0.0,0.0,75,0.00,,,0.00,meteohub,2013-06-29 10:37:00,
2013-06-29 04:42:00,44.8,37.8,32.04,SW,225,0.0,0.0,76,0.00,,,0.00,meteohub,2013-06-29 10:42:00,
2013-06-29 04:47:00,44.8,37.8,32.04,SW,225,0.0,0.0,76,0.00,,,0.00,meteohub,2013-06-29 10:47:00,
2013-06-29 04:52:00,45.0,38.1,32.04,SW,225,0.0,0.0,77,0.00,,,0.00,meteohub,2013-06-29 10:52:00,
2013-06-29 04:57:00,45.0,38.1,32.04,SW,225,0.0,0.0,77,0.00,,,0.00,meteohub,2013-06-29 10:57:00,
2013-06-29 05:02:00,45.0,38.1,32.05,SW,225,0.0,0.0,77,0.00,,,0.00,meteohub,2013-06-29 11:02:00,
2013-06-29 05:07:00,45.0,38.1,32.04,South,180,0.0,0.0,77,0.00,,,0.00,meteohub,2013-06-29 11:07:00,
2013-06-29 05:12:00,44.8,37.9,32.04,South,180,0.0,0.0,77,0.00,,,0.00,meteohub,2013-06-29 11:12:00,
2013-06-29 05:17:00,44.6,37.8,32.04,South,180,0.0,0.0,77,0.00,,,0.00,meteohub,2013-06-29 11:17:00,
2013-06-29 05:22:00,44.6,37.8,32.04,West,270,0.0,0.0,77,0.00,,,0.00,meteohub,2013-06-29 11:22:00,
2013-06-29 05:27:00,44.4,37.9,32.04,SW,225,0.0,0.0,78,0.00,,,0.00,meteohub,2013-06-29 11:27:00,
2013-06-29 05:32:00,44.2,38.1,32.04,SW,225,0.0,0.0,79,0.00,,,0.00,meteohub,2013-06-29 11:32:00,
2013-06-29 05:37:00,44.2,38.1,32.04,SW,225,0.0,0.0,79,0.00,,,0.00,meteohub,2013-06-29 11:37:00,
2013-06-29 05:42:00,44.2,38.1,32.04,SW,225,0.0,0.0,79,0.00,,,0.00,meteohub,2013-06-29 11:42:00,
2013-06-29 05:47:00,44.1,37.9,32.04,West,270,0.0,0.0,79,0.00,,,0.00,meteohub,2013-06-29 11:47:00,
2013-06-29 05:52:00,44.2,38.1,32.04,West,270,0.0,0.0,79,0.00,,,0.00,meteohub,2013-06-29 11:52:00,
2013-06-29 05:57:00,44.2,38.5,32.04,SW,225,0.0,0.0,80,0.00,,,0.00,meteohub,2013-06-29 11:57:00,
2013-06-29 06:02:00,44.2,38.5,32.04,SW,225,0.0,0.0,80,0.00,,,0.00,meteohub,2013-06-29 12:02:00,
2013-06-29 06:07:00,44.2,38.5,32.04,SW,225,0.0,0.0,80,0.00,,,0.00,meteohub,2013-06-29 12:07:00,
2013-06-29 06:12:00,44.8,38.7,32.04,SW,225,0.0,0.0,79,0.00,,,0.00,meteohub,2013-06-29 12:12:00,
2013-06-29 06:17:00,45.0,38.8,32.04,SW,225,0.0,0.0,79,0.00,,,0.00,meteohub,2013-06-29 12:17:00,
2013-06-29 06:22:00,45.3,39.6,32.04,West,270,0.0,0.0,80,0.00,,,0.00,meteohub,2013-06-29 12:22:00,
2013-06-29 06:27:00,45.5,39.4,32.04,West,270,0.0,0.0,79,0.00,,,0.00,meteohub,2013-06-29 12:27:00,
2013-06-29 06:32:00,45.9,39.7,32.04,North,0,0.0,0.0,79,0.00,,,0.00,meteohub,2013-06-29 12:32:00,
2013-06-29 06:37:00,46.0,39.9,32.04,East,90,0.0,0.0,79,0.00,,,0.00,meteohub,2013-06-29 12:37:00,
2013-06-29 06:42:00,45.9,39.0,32.04,East,90,0.0,0.0,77,0.00,,,0.00,meteohub,2013-06-29 12:42:00,
2013-06-29 06:47:00,45.5,38.7,32.04,East,90,0.0,0.0,77,0.00,,,0.00,meteohub,2013-06-29 12:47:00,
2013-06-29 06:52:00,45.3,38.5,32.04,SE,135,0.0,0.0,77,0.00,,,0.00,meteohub,2013-06-29 12:52:00,
2013-06-29 06:58:00,45.5,38.7,32.04,SE,135,0.0,0.0,77,0.00,,,0.00,meteohub,2013-06-29 12:58:00,
2013-06-29 07:03:00,46.4,39.9,32.04,South,180,0.0,0.0,78,0.00,,,0.00,meteohub,2013-06-29 13:03:00,
2013-06-29 07:08:00,48.4,41.5,32.04,SW,225,0.0,0.0,77,0.00,,,0.00,meteohub,2013-06-29 13:08:00,
2013-06-29 07:13:00,50.4,42.4,32.04,SW,225,0.0,0.0,74,0.00,,,0.00,meteohub,2013-06-29 13:13:00,
2013-06-29 07:18:00,52.5,43.7,32.04,West,270,0.0,0.0,72,0.00,,,0.00,meteohub,2013-06-29 13:18:00,
2013-06-29 07:24:00,53.4,42.8,32.04,West,270,0.0,0.0,67,0.00,,,0.00,meteohub,2013-06-29 13:24:00,
2013-06-29 07:29:00,54.3,42.8,32.03,North,0,0.0,0.0,65,0.00,,,0.00,meteohub,2013-06-29 13:29:00,
2013-06-29 07:34:00,55.2,43.3,32.03,West,270,0.0,0.0,64,0.00,,,0.00,meteohub,2013-06-29 13:34:00,
2013-06-29 07:39:00,55.9,43.5,32.03,NE,45,2.0,0.0,63,0.00,,,0.00,meteohub,2013-06-29 13:39:00,
2013-06-29 07:44:00,56.7,43.3,32.03,NE,45,2.0,2.0,61,0.00,,,0.00,meteohub,2013-06-29 13:44:00,
2013-06-29 07:50:00,57.2,43.0,32.03,NE,45,1.0,4.0,59,0.00,,,0.00,meteohub,2013-06-29 13:50:00,
2013-06-29 07:55:00,57.2,43.0,32.03,NE,45,0.0,4.0,59,0.00,,,0.00,meteohub,2013-06-29 13:55:00,
2013-06-29 08:00:00,57.7,43.0,32.03,NNE,23,3.0,4.0,58,0.00,,,0.00,meteohub,2013-06-29 14:00:00,
2013-06-29 08:05:00,57.7,43.0,32.03,NNE,23,3.0,4.0,58,0.00,,,0.00,meteohub,2013-06-29 14:05:00,
2013-06-29 08:10:00,55.9,41.4,32.03,North,0,0.0,4.0,58,0.00,,,0.00,meteohub,2013-06-29 14:10:00,
2013-06-29 08:15:00,55.8,42.1,32.03,West,270,0.0,3.0,60,0.00,,,0.00,meteohub,2013-06-29 14:15:00,
2013-06-29 08:21:00,55.6,42.3,32.03,NE,45,0.0,3.0,61,0.00,,,0.00,meteohub,2013-06-29 14:21:00,
2013-06-29 08:26:00,55.9,42.6,32.03,NE,45,3.0,3.0,61,0.00,,,0.00,meteohub,2013-06-29 14:26:00,
2013-06-29 08:31:00,56.3,43.0,32.04,NE,45,3.0,3.0,61,0.00,,,0.00,meteohub,2013-06-29 14:31:00,
2013-06-29 08:36:00,56.7,43.3,32.04,NE,45,2.0,3.0,61,0.00,,,0.00,meteohub,2013-06-29 14:36:00,
2013-06-29 08:41:00,56.7,43.3,32.04,NW,315,0.0,3.0,61,0.00,,,0.00,meteohub,2013-06-29 14:41:00,
2013-06-29 08:47:00,56.8,43.5,32.04,NW,315,0.0,3.0,61,0.00,,,0.00,meteohub,2013-06-29 14:47:00,
2013-06-29 08:52:00,57.0,43.7,32.04,NE,45,0.0,3.0,61,0.00,,,0.00,meteohub,2013-06-29 14:52:00,
2013-06-29 08:57:00,57.2,43.5,32.04,NW,315,0.0,2.0,60,0.00,,,0.00,meteohub,2013-06-29 14:57:00,
2013-06-29 09:02:00,57.4,43.7,32.04,North,0,0.0,2.0,60,0.00,,,0.00,meteohub,2013-06-29 15:02:00,
2013-06-29 09:07:00,57.2,43.5,32.04,NE,45,3.0,3.0,60,0.00,,,0.00,meteohub,2013-06-29 15:07:00,
2013-06-29 09:12:00,58.1,44.2,32.03,North,0,2.0,3.0,60,0.00,,,0.00,meteohub,2013-06-29 15:12:00,
2013-06-29 09:17:00,60.1,44.8,32.03,North,0,3.0,3.0,57,0.00,,,0.00,meteohub,2013-06-29 15:17:00,
2013-06-29 09:22:00,61.3,44.6,32.03,West,270,2.0,3.0,54,0.00,,,0.00,meteohub,2013-06-29 15:22:00,
2013-06-29 09:27:00,62.1,44.2,32.03,East,90,5.0,5.0,52,0.00,,,0.00,meteohub,2013-06-29 15:27:00,
2013-06-29 09:32:00,63.1,44.8,32.03,NE,45,6.0,6.0,51,0.00,,,0.00,meteohub,2013-06-29 15:32:00,
2013-06-29 09:37:00,64.0,45.0,32.03,NE,45,4.0,7.0,50,0.00,,,0.00,meteohub,2013-06-29 15:37:00,
2013-06-29 09:42:00,64.9,44.2,32.02,West,270,4.0,7.0,47,0.00,,,0.00,meteohub,2013-06-29 15:42:00,
2013-06-29 09:47:00,66.6,44.6,32.02,NNE,23,4.0,6.0,45,0.00,,,0.00,meteohub,2013-06-29 15:47:00,
2013-06-29 09:52:00,67.5,45.3,32.02,NE,45,4.0,4.0,45,0.00,,,0.00,meteohub,2013-06-29 15:52:00,
2013-06-29 09:57:00,68.2,43.5,32.01,East,90,4.0,5.0,41,0.00,,,0.00,meteohub,2013-06-29 15:57:00,
2013-06-29 10:02:00,68.5,43.9,32.02,SE,135,4.0,5.0,41,0.00,,,0.00,meteohub,2013-06-29 16:02:00,
2013-06-29 10:07:00,68.5,43.9,32.02,SE,135,4.0,5.0,41,0.00,,,0.00,meteohub,2013-06-29 16:07:00,
2013-06-29 10:12:00,69.8,44.4,32.02,SE,135,3.0,4.0,40,0.00,,,0.00,meteohub,2013-06-29 16:12:00,
2013-06-29 10:17:00,70.7,43.2,32.02,SE,135,5.0,5.0,37,0.00,,,0.00,meteohub,2013-06-29 16:17:00,
2013-06-29 10:22:00,71.1,43.5,32.01,SW,225,1.0,7.0,37,0.00,,,0.00,meteohub,2013-06-29 16:22:00,
2013-06-29 10:27:00,71.8,41.9,32.01,North,0,4.0,7.0,34,0.00,,,0.00,meteohub,2013-06-29 16:27:00,
2013-06-29 10:32:00,72.5,42.6,32.01,SW,225,2.0,7.0,34,0.00,,,0.00,meteohub,2013-06-29 16:32:00,
2013-06-29 10:37:00,73.4,42.6,32.01,SW,225,3.0,6.0,33,0.00,,,0.00,meteohub,2013-06-29 16:37:00,
2013-06-29 10:42:00,73.9,41.4,32.01,East,90,4.0,6.0,31,0.00,,,0.00,meteohub,2013-06-29 16:42:00,
2013-06-29 10:47:00,74.8,40.5,32.01,NE,45,2.0,6.0,29,0.00,,,0.00,meteohub,2013-06-29 16:47:00,
2013-06-29 10:52:00,75.6,38.3,32.00,East,90,6.0,6.0,26,0.00,,,0.00,meteohub,2013-06-29 16:52:00,
2013-06-29 10:57:00,75.9,38.7,32.00,SE,135,4.0,8.0,26,0.00,,,0.00,meteohub,2013-06-29 16:57:00,
2013-06-29 11:02:00,76.6,38.1,32.00,SW,225,3.0,8.0,25,0.00,,,0.00,meteohub,2013-06-29 17:02:00,
2013-06-29 11:07:00,75.4,37.0,32.00,East,90,4.0,8.0,25,0.00,,,0.00,meteohub,2013-06-29 17:07:00,
2013-06-29 11:12:00,74.8,37.6,32.00,SW,225,2.0,8.0,26,0.00,,,0.00,meteohub,2013-06-29 17:12:00,
2013-06-29 11:17:00,74.3,38.1,32.00,East,90,4.0,8.0,27,0.00,,,0.00,meteohub,2013-06-29 17:17:00,
2013-06-29 11:22:00,74.5,38.3,32.00,SW,225,4.0,6.0,27,0.00,,,0.00,meteohub,2013-06-29 17:22:00,
2013-06-29 11:27:00,75.9,38.7,31.99,South,180,6.0,7.0,26,0.00,,,0.00,meteohub,2013-06-29 17:27:00,
2013-06-29 11:32:00,76.6,38.1,31.99,NW,315,7.0,7.0,25,0.00,,,0.00,meteohub,2013-06-29 17:32:00,
2013-06-29 11:37:00,76.6,38.1,31.99,SW,225,11.0,11.0,25,0.00,,,0.00,meteohub,2013-06-29 17:37:00,
2013-06-29 11:42:00,75.9,36.5,32.00,NW,315,11.0,12.0,24,0.00,,,0.00,meteohub,2013-06-29 17:42:00,
2013-06-29 11:47:00,74.8,36.7,31.99,SE,135,3.0,12.0,25,0.00,,,0.00,meteohub,2013-06-29 17:47:00,
2013-06-29 11:52:00,73.9,36.9,31.99,East,90,4.0,12.0,26,0.00,,,0.00,meteohub,2013-06-29 17:52:00,
2013-06-29 11:57:00,73.6,36.5,31.99,North,0,2.0,11.0,26,0.00,,,0.00,meteohub,2013-06-29 17:57:00,
2013-06-29 12:02:00,73.8,37.8,31.99,East,90,0.0,6.0,27,0.00,,,0.00,meteohub,2013-06-29 18:02:00,
2013-06-29 12:07:00,73.8,37.8,31.99,East,90,0.0,5.0,27,0.00,,,0.00,meteohub,2013-06-29 18:07:00,
2013-06-29 12:12:00,73.9,36.9,31.99,NW,315,9.0,9.0,26,0.00,,,0.00,meteohub,2013-06-29 18:12:00,
2013-06-29 12:18:00,73.8,36.7,31.98,SE,135,4.0,9.0,26,0.00,,,0.00,meteohub,2013-06-29 18:18:00,
2013-06-29 12:23:00,74.8,37.6,31.99,NNE,23,4.0,9.0,26,0.00,,,0.00,meteohub,2013-06-29 18:23:00,
2013-06-29 12:28:00,76.3,36.9,31.98,NW,315,5.0,10.0,24,0.00,,,0.00,meteohub,2013-06-29 18:28:00,
2013-06-29 12:33:00,78.3,37.4,31.98,NW,315,9.0,10.0,23,0.00,,,0.00,meteohub,2013-06-29 18:33:00,
2013-06-29 12:35:00,78.8,34.3,31.98,West,270,8.0,10.0,20,0.00,,,0.00,meteohub,2013-06-29 18:35:00,
2013-06-29 12:40:00,79.5,33.6,31.98,North,0,5.0,12.0,19,0.00,,,0.00,meteohub,2013-06-29 18:40:00,
2013-06-29 12:45:00,78.4,34.0,31.98,NW,315,9.0,12.0,20,0.00,,,0.00,meteohub,2013-06-29 18:45:00,
2013-06-29 12:50:00,77.0,32.9,31.97,NW,315,9.0,10.0,20,0.00,,,0.00,meteohub,2013-06-29 18:50:00,
2013-06-29 12:56:00,77.5,32.0,31.97,NW,315,7.0,10.0,19,0.00,,,0.00,meteohub,2013-06-29 18:56:00,
2013-06-29 13:01:00,79.2,33.4,31.97,NNE,23,5.0,10.0,19,0.00,,,0.00,meteohub,2013-06-29 19:01:00,
2013-06-29 13:06:00,80.4,33.1,31.97,SW,225,4.0,10.0,18,0.00,,,0.00,meteohub,2013-06-29 19:06:00,
2013-06-29 13:11:00,79.5,30.9,31.97,NW,315,7.0,10.0,17,0.00,,,0.00,meteohub,2013-06-29 19:11:00,
2013-06-29 13:16:00,79.3,33.4,31.97,NW,315,8.0,10.0,19,0.00,,,0.00,meteohub,2013-06-29 19:16:00,
2013-06-29 13:22:00,80.2,34.2,31.97,West,270,11.0,11.0,19,0.00,,,0.00,meteohub,2013-06-29 19:22:00,
2013-06-29 13:27:00,81.1,32.2,31.96,North,0,4.0,14.0,17,0.00,,,0.00,meteohub,2013-06-29 19:27:00,
2013-06-29 13:32:00,81.7,32.5,31.97,SW,225,11.0,14.0,17,0.00,,,0.00,meteohub,2013-06-29 19:32:00,
2013-06-29 13:37:00,80.8,33.3,31.97,NW,315,12.0,14.0,18,0.00,,,0.00,meteohub,2013-06-29 19:37:00,
2013-06-29 13:42:00,78.6,34.2,31.97,West,270,7.0,13.0,20,0.00,,,0.00,meteohub,2013-06-29 19:42:00,
2013-06-29 13:47:00,77.5,36.9,31.96,West,270,9.0,13.0,23,0.00,,,0.00,meteohub,2013-06-29 19:47:00,
2013-06-29 13:52:00,76.8,37.2,31.97,NW,315,12.0,13.0,24,0.00,,,0.00,meteohub,2013-06-29 19:52:00,
2013-06-29 13:57:00,75.9,37.6,31.97,NW,315,7.0,13.0,25,0.00,,,0.00,meteohub,2013-06-29 19:57:00,
2013-06-29 14:02:00,75.4,37.0,31.97,NW,315,4.0,13.0,25,0.00,,,0.00,meteohub,2013-06-29 20:02:00,
2013-06-29 14:07:00,75.4,37.0,31.98,NW,315,4.0,13.0,25,0.00,,,0.00,meteohub,2013-06-29 20:07:00,
2013-06-29 14:12:00,76.6,38.1,31.97,North,0,6.0,10.0,25,0.00,,,0.00,meteohub,2013-06-29 20:12:00,
2013-06-29 14:17:00,77.9,38.1,31.97,West,270,11.0,11.0,24,0.00,,,0.00,meteohub,2013-06-29 20:17:00,
2013-06-29 14:22:00,79.3,37.2,31.97,North,0,4.0,11.0,22,0.00,,,0.00,meteohub,2013-06-29 20:22:00,
2013-06-29 14:27:00,79.9,37.6,31.97,West,270,8.0,11.0,22,0.00,,,0.00,meteohub,2013-06-29 20:27:00,
2013-06-29 14:32:00,79.9,36.5,31.97,West,270,8.0,11.0,21,0.00,,,0.00,meteohub,2013-06-29 20:32:00,
2013-06-29 14:37:00,80.8,31.8,31.97,West,270,5.0,10.0,17,0.00,,,0.00,meteohub,2013-06-29 20:37:00,
2013-06-29 14:42:00,79.7,32.4,31.96,East,90,8.0,8.0,18,0.00,,,0.00,meteohub,2013-06-29 20:42:00,
2013-06-29 14:47:00,77.9,38.1,31.97,East,90,10.0,11.0,24,0.00,,,0.00,meteohub,2013-06-29 20:47:00,
2013-06-29 14:52:00,75.0,40.6,31.96,East,90,8.0,12.0,29,0.00,,,0.00,meteohub,2013-06-29 20:52:00,
2013-06-29 14:57:00,73.9,40.5,31.96,SE,135,11.0,16.0,30,0.00,,,0.00,meteohub,2013-06-29 20:57:00,
2013-06-29 15:02:00,72.7,40.3,31.96,SE,135,10.0,16.0,31,0.00,,,0.00,meteohub,2013-06-29 21:02:00,
2013-06-29 15:07:00,71.6,40.1,31.96,South,180,7.0,14.0,32,0.00,,,0.00,meteohub,2013-06-29 21:07:00,
2013-06-29 15:12:00,71.2,40.6,31.96,SE,135,8.0,15.0,33,0.00,,,0.00,meteohub,2013-06-29 21:12:00,
2013-06-29 15:17:00,70.9,39.6,31.97,ESE,113,11.0,15.0,32,0.00,,,0.00,meteohub,2013-06-29 21:17:00,
2013-06-29 15:22:00,70.9,40.3,31.97,NE,45,11.0,15.0,33,0.00,,,0.00,meteohub,2013-06-29 21:22:00,
2013-06-29 15:27:00,70.5,40.1,31.96,SE,135,14.0,15.0,33,0.00,,,0.00,meteohub,2013-06-29 21:27:00,
2013-06-29 15:32:00,70.3,40.6,31.97,East,90,8.0,15.0,34,0.00,,,0.00,meteohub,2013-06-29 21:32:00,
2013-06-29 15:37:00,69.4,41.4,31.98,SE,135,11.0,15.0,36,0.00,,,0.00,meteohub,2013-06-29 21:37:00,
2013-06-29 15:42:00,68.7,41.4,31.98,SE,135,11.0,15.0,37,0.00,,,0.00,meteohub,2013-06-29 21:42:00,
2013-06-29 15:47:00,68.2,41.0,31.99,SE,135,8.0,15.0,37,0.00,,,0.00,meteohub,2013-06-29 21:47:00,
2013-06-29 15:52:00,67.6,41.2,31.99,SE,135,5.0,15.0,38,0.00,,,0.00,meteohub,2013-06-29 21:52:00,
2013-06-29 15:57:00,67.3,40.1,31.99,East,90,10.0,15.0,37,0.00,,,0.00,meteohub,2013-06-29 21:57:00,
2013-06-29 16:02:00,66.7,40.3,31.99,SE,135,7.0,12.0,38,0.00,,,0.00,meteohub,2013-06-29 22:02:00,
2013-06-29 16:07:00,66.7,40.3,32.00,SE,135,7.0,12.0,38,0.00,,,0.00,meteohub,2013-06-29 22:07:00,
2013-06-29 16:12:00,65.7,44.2,31.99,East,90,8.0,12.0,46,0.00,,,0.00,meteohub,2013-06-29 22:12:00,
2013-06-29 16:17:00,65.7,46.0,32.00,South,180,13.0,13.0,49,0.00,,,0.00,meteohub,2013-06-29 22:17:00,
2013-06-29 16:22:00,64.4,46.4,32.00,East,90,10.0,14.0,52,0.00,,,0.00,meteohub,2013-06-29 22:22:00,
2013-06-29 16:27:00,63.3,45.9,32.01,East,90,6.0,14.0,53,0.00,,,0.00,meteohub,2013-06-29 22:27:00,
2013-06-29 16:32:00,62.6,46.2,32.01,East,90,11.0,14.0,55,0.00,,,0.00,meteohub,2013-06-29 22:32:00,
2013-06-29 16:37:00,62.8,45.0,32.01,East,90,9.0,14.0,52,0.00,,,0.00,meteohub,2013-06-29 22:37:00,
2013-06-29 16:42:00,64.0,45.5,32.01,South,180,14.0,14.0,51,0.00,,,0.00,meteohub,2013-06-29 22:42:00,
2013-06-29 16:47:00,64.2,44.1,32.00,SE,135,6.0,14.0,48,0.00,,,0.00,meteohub,2013-06-29 22:47:00,
2013-06-29 16:52:00,63.9,44.8,32.00,ESE,113,10.0,14.0,50,0.00,,,0.00,meteohub,2013-06-29 22:52:00,
2013-06-29 16:57:00,63.1,44.8,32.00,East,90,10.0,14.0,51,0.00,,,0.00,meteohub,2013-06-29 22:57:00,
2013-06-29 17:02:00,63.0,44.6,32.00,SE,135,8.0,15.0,51,0.00,,,0.00,meteohub,2013-06-29 23:02:00,
2013-06-29 17:07:00,63.3,45.0,32.00,NE,45,11.0,15.0,51,0.00,,,0.00,meteohub,2013-06-29 23:07:00,
2013-06-29 17:12:00,62.8,45.0,32.00,SE,135,15.0,15.0,52,0.00,,,0.00,meteohub,2013-06-29 23:12:00,
2013-06-29 17:17:00,61.9,44.6,32.01,SE,135,8.0,15.0,53,0.00,,,0.00,meteohub,2013-06-29 23:17:00,
2013-06-29 17:22:00,61.2,44.4,32.02,East,90,11.0,15.0,54,0.00,,,0.00,meteohub,2013-06-29 23:22:00,
2013-06-29 17:27:00,60.1,44.8,32.02,SE,135,7.0,16.0,57,0.00,,,0.00,meteohub,2013-06-29 23:27:00,
2013-06-29 17:32:00,59.7,45.0,32.02,SE,135,11.0,16.0,58,0.00,,,0.00,meteohub,2013-06-29 23:32:00,
2013-06-29 17:37:00,58.8,46.6,32.03,East,90,6.0,16.0,64,0.00,,,0.00,meteohub,2013-06-29 23:37:00,
2013-06-29 17:42:00,57.9,46.2,32.03,East,90,12.0,12.0,65,0.00,,,0.00,meteohub,2013-06-29 23:42:00,
2013-06-29 17:47:00,57.4,46.0,32.02,East,90,10.0,14.0,66,0.00,,,0.00,meteohub,2013-06-29 23:47:00,
2013-06-29 17:52:00,57.0,46.9,32.02,SE,135,8.0,14.0,69,0.00,,,0.00,meteohub,2013-06-29 23:52:00,
2013-06-29 17:57:00,56.5,46.0,32.02,SW,225,8.0,14.0,68,0.00,,,0.00,meteohub,2013-06-29 23:57:00,
2013-06-29 18:02:00,56.5,46.0,32.01,South,180,8.0,12.0,68,0.00,,,0.00,meteohub,2013-06-30 00:02:00,
2013-06-29 18:07:00,56.5,46.0,32.02,South,180,8.0,10.0,68,0.00,,,0.00,meteohub,2013-06-30 00:07:00,
2013-06-29 18:12:00,57.2,45.9,32.01,South,180,10.0,11.0,66,0.00,,,0.00,meteohub,2013-06-30 00:12:00,
2013-06-29 18:17:00,57.4,46.0,32.01,East,90,5.0,11.0,66,0.00,,,0.00,meteohub,2013-06-30 00:17:00,
2013-06-29 18:22:00,57.2,45.5,32.01,West,270,9.0,12.0,65,0.00,,,0.00,meteohub,2013-06-30 00:22:00,
2013-06-29 18:28:00,57.4,45.3,32.01,East,90,6.0,12.0,64,0.00,,,0.00,meteohub,2013-06-30 00:28:00,
2013-06-29 18:33:00,57.6,45.1,32.01,SE,135,4.0,12.0,63,0.00,,,0.00,meteohub,2013-06-30 00:33:00,
2013-06-29 18:36:00,57.7,44.8,32.00,ESE,113,6.0,11.0,62,0.00,,,0.00,meteohub,2013-06-30 00:36:00,
2013-06-29 18:41:00,57.9,45.0,32.00,East,90,5.0,11.0,62,0.00,,,0.00,meteohub,2013-06-30 00:41:00,
2013-06-29 18:46:00,57.9,45.9,31.99,SE,135,8.0,9.0,64,0.00,,,0.00,meteohub,2013-06-30 00:46:00,
2013-06-29 18:51:00,57.6,45.5,32.00,SE,135,4.0,11.0,64,0.00,,,0.00,meteohub,2013-06-30 00:51:00,
2013-06-29 18:57:00,57.4,46.0,31.99,SE,135,4.0,11.0,66,0.00,,,0.00,meteohub,2013-06-30 00:57:00,
2013-06-29 19:02:00,57.9,46.6,31.99,SE,135,4.0,11.0,66,0.00,,,0.00,meteohub,2013-06-30 01:02:00,
2013-06-29 19:07:00,58.3,46.6,31.99,South,180,4.0,11.0,65,0.00,,,0.00,meteohub,2013-06-30 01:07:00,
2013-06-29 19:12:00,57.9,46.2,31.99,East,90,3.0,8.0,65,0.00,,,0.00,meteohub,2013-06-30 01:12:00,
2013-06-29 19:17:00,57.7,46.0,31.99,SE,135,4.0,8.0,65,0.00,,,0.00,meteohub,2013-06-30 01:17:00,
2013-06-29 19:22:00,57.4,45.7,31.99,East,90,0.0,8.0,65,0.00,,,0.00,meteohub,2013-06-30 01:22:00,
2013-06-29 19:27:00,57.2,45.5,31.99,SE,135,0.0,4.0,65,0.00,,,0.00,meteohub,2013-06-30 01:27:00,
2013-06-29 19:32:00,57.0,45.9,31.99,SW,225,0.0,4.0,66,0.00,,,0.00,meteohub,2013-06-30 01:32:00,
2013-06-29 19:37:00,56.8,46.0,31.99,North,0,0.0,2.0,67,0.00,,,0.00,meteohub,2013-06-30 01:37:00,
2013-06-29 19:42:00,56.3,45.5,31.99,West,270,2.0,0.0,67,0.00,,,0.00,meteohub,2013-06-30 01:42:00,
2013-06-29 19:47:00,56.1,45.3,31.99,South,180,1.0,2.0,67,0.00,,,0.00,meteohub,2013-06-30 01:47:00,
2013-06-29 19:52:00,55.9,45.1,31.99,West,270,0.0,2.0,67,0.00,,,0.00,meteohub,2013-06-30 01:52:00,
2013-06-29 19:57:00,55.9,45.5,31.99,West,270,2.0,2.0,68,0.00,,,0.00,meteohub,2013-06-30 01:57:00,
2013-06-29 20:02:00,55.9,45.5,31.99,West,270,1.0,2.0,68,0.00,,,0.00,meteohub,2013-06-30 02:02:00,
2013-06-29 20:07:00,55.9,45.5,31.99,West,270,1.0,2.0,68,0.00,,,0.00,meteohub,2013-06-30 02:07:00,
2013-06-29 20:12:00,55.6,45.5,31.99,East,90,0.0,2.0,69,0.00,,,0.00,meteohub,2013-06-30 02:12:00,
2013-06-29 20:17:00,55.4,45.3,31.99,SW,225,0.0,1.0,69,0.00,,,0.00,meteohub,2013-06-30 02:17:00,
2013-06-29 20:22:00,55.2,45.7,31.99,West,270,3.0,3.0,70,0.00,,,0.00,meteohub,2013-06-30 02:22:00,
2013-06-29 20:27:00,55.0,45.5,31.99,NW,315,1.0,3.0,70,0.00,,,0.00,meteohub,2013-06-30 02:27:00,
2013-06-29 20:32:00,54.9,45.3,31.99,West,270,4.0,4.0,70,0.00,,,0.00,meteohub,2013-06-30 02:32:00,
2013-06-29 20:37:00,54.7,45.1,31.99,NW,315,2.0,5.0,70,0.00,,,0.00,meteohub,2013-06-30 02:37:00,
2013-06-29 20:42:00,54.5,45.0,31.99,NW,315,0.0,5.0,70,0.00,,,0.00,meteohub,2013-06-30 02:42:00,
2013-06-29 20:47:00,54.1,45.0,31.99,West,270,0.0,5.0,71,0.00,,,0.00,meteohub,2013-06-30 02:47:00,
2013-06-29 20:52:00,54.0,44.8,31.99,West,270,3.0,3.0,71,0.00,,,0.00,meteohub,2013-06-30 02:52:00,
2013-06-29 20:57:00,54.0,44.8,31.99,West,270,3.0,3.0,71,0.00,,,0.00,meteohub,2013-06-30 02:57:00,
2013-06-29 21:02:00,53.8,45.0,31.99,NW,315,0.0,3.0,72,0.00,,,0.00,meteohub,2013-06-30 03:02:00,
2013-06-29 21:07:00,53.6,44.8,31.99,NW,315,0.0,3.0,72,0.00,,,0.00,meteohub,2013-06-30 03:07:00,
2013-06-29 21:13:00,53.4,45.0,31.99,West,270,0.0,3.0,73,0.00,,,0.00,meteohub,2013-06-30 03:13:00,
2013-06-29 21:18:00,53.2,44.8,31.99,NW,315,1.0,0.0,73,0.00,,,0.00,meteohub,2013-06-30 03:18:00,
2013-06-29 21:23:00,53.2,44.8,31.99,NW,315,0.0,1.0,73,0.00,,,0.00,meteohub,2013-06-30 03:23:00,
2013-06-29 21:28:00,53.1,44.6,31.99,West,270,2.0,2.0,73,0.00,,,0.00,meteohub,2013-06-30 03:28:00,
2013-06-29 21:33:00,52.7,44.2,31.99,SW,225,0.0,2.0,73,0.00,,,0.00,meteohub,2013-06-30 03:33:00,
2013-06-29 21:34:00,52.7,44.2,31.99,SW,225,0.0,2.0,73,0.00,,,0.00,meteohub,2013-06-30 03:34:00,
2013-06-29 21:40:00,52.2,44.1,31.99,South,180,0.0,2.0,74,0.00,,,0.00,meteohub,2013-06-30 03:40:00,
2013-06-29 21:45:00,51.6,43.9,31.99,West,270,2.0,2.0,75,0.00,,,0.00,meteohub,2013-06-30 03:45:00,
2013-06-29 21:50:00,51.3,43.9,32.00,NW,315,0.0,2.0,76,0.00,,,0.00,meteohub,2013-06-30 03:50:00,
2013-06-29 21:55:00,50.9,43.5,32.00,South,180,0.0,2.0,76,0.00,,,0.00,meteohub,2013-06-30 03:55:00,
2013-06-29 22:00:00,50.5,43.3,32.00,South,180,0.0,2.0,76,0.00,,,0.00,meteohub,2013-06-30 04:00:00,
2013-06-29 22:01:00,50.5,43.3,32.00,South,180,0.0,2.0,76,0.00,,,0.00,meteohub,2013-06-30 04:01:00,
2013-06-29 22:04:00,50.5,43.3,32.00,South,180,0.0,2.0,76,0.00,,,0.00,meteohub,2013-06-30 04:04:00,
2013-06-29 22:05:00,50.5,43.3,31.99,South,180,0.0,2.0,76,0.00,,,0.00,meteohub,2013-06-30 04:05:00,
2013-06-29 22:07:00,50.5,43.3,32.00,South,180,0.0,0.0,76,0.00,,,0.00,meteohub,2013-06-30 04:07:00,
2013-06-29 22:12:00,49.5,43.2,32.00,West,270,0.0,1.0,79,0.00,,,0.00,meteohub,2013-06-30 04:12:00,
2013-06-29 22:17:00,49.3,43.0,32.00,West,270,0.0,1.0,79,0.00,,,0.00,meteohub,2013-06-30 04:17:00,
2013-06-29 22:22:00,49.1,42.8,32.00,South,180,0.0,1.0,79,0.00,,,0.00,meteohub,2013-06-30 04:22:00,
2013-06-29 22:27:00,48.9,43.0,32.00,West,270,0.0,0.0,80,0.00,,,0.00,meteohub,2013-06-30 04:27:00,
2013-06-29 22:32:00,48.7,42.8,32.00,West,270,0.0,0.0,80,0.00,,,0.00,meteohub,2013-06-30 04:32:00,
2013-06-29 22:37:00,48.7,43.2,32.00,West,270,0.0,0.0,81,0.00,,,0.00,meteohub,2013-06-30 04:37:00,
2013-06-29 22:42:00,48.6,42.6,32.00,South,180,0.0,0.0,80,0.00,,,0.00,meteohub,2013-06-30 04:42:00,
2013-06-29 22:47:00,48.0,42.4,32.01,West,270,0.0,0.0,81,0.00,,,0.00,meteohub,2013-06-30 04:47:00,
2013-06-29 22:52:00,47.8,42.6,32.00,West,270,0.0,0.0,82,0.00,,,0.00,meteohub,2013-06-30 04:52:00,
2013-06-29 22:57:00,47.8,42.6,32.01,SW,225,0.0,0.0,82,0.00,,,0.00,meteohub,2013-06-30 04:57:00,
2013-06-29 23:02:00,47.7,42.8,32.00,SW,225,0.0,0.0,83,0.00,,,0.00,meteohub,2013-06-30 05:02:00,
2013-06-29 23:07:00,47.3,42.4,32.00,SW,225,0.0,0.0,83,0.00,,,0.00,meteohub,2013-06-30 05:07:00,
2013-06-29 23:12:00,46.9,42.4,32.01,SW,225,0.0,0.0,84,0.00,,,0.00,meteohub,2013-06-30 05:12:00,
2013-06-29 23:17:00,46.9,42.4,32.01,SW,225,0.0,0.0,84,0.00,,,0.00,meteohub,2013-06-30 05:17:00,
2013-06-29 23:22:00,46.9,42.6,32.00,SW,225,0.0,0.0,85,0.00,,,0.00,meteohub,2013-06-30 05:22:00,
2013-06-29 23:27:00,46.9,43.0,32.01,SW,225,0.0,0.0,86,0.00,,,0.00,meteohub,2013-06-30 05:27:00,
2013-06-29 23:32:00,46.9,43.0,32.01,SW,225,0.0,0.0,86,0.00,,,0.00,meteohub,2013-06-30 05:32:00,
2013-06-29 23:37:00,47.1,43.2,32.01,NW,315,0.0,0.0,86,0.00,,,0.00,meteohub,2013-06-30 05:37:00,
2013-06-29 23:42:00,47.1,43.5,32.01,NW,315,0.0,0.0,87,0.00,,,0.00,meteohub,2013-06-30 05:42:00,
2013-06-29 23:47:00,46.9,43.3,32.01,NW,315,0.0,0.0,87,0.00,,,0.00,meteohub,2013-06-30 05:47:00,
2013-06-29 23:52:00,46.6,42.6,32.01,NW,315,0.0,0.0,86,0.00,,,0.00,meteohub,2013-06-30 05:52:00,
2013-06-29 23:57:00,46.0,42.1,32.01,NW,315,0.0,0.0,86,0.00,,,0.00,meteohub,2013-06-30 05:57:00,